Location: Lussas
(44.6119°N, 4.4726°E)
Time: 05:39:04
(UTC+00:00)

PSLV R/B - Pass Details

Date: 26 November 2020
Orbit: 503 x 579 km, 97.8° (Epoch: 18 January)

Event Time Altitude Azimuth Distance (km) Brightness Sun altitude
Rises 05:53:20 0° 8° (N) 2,729 7.3 -10.5°
Reaches altitude 10° 05:55:31 10° 3° (N) 1,818 6.3 -10.2°
Maximum altitude 05:59:20 52° 287° (WNW) 670 3.9 -9.5°
Drops below altitude 10° 06:03:02 10° 211° (SSW) 1,760 6.3 -8.9°
Sets 06:05:07 0° 206° (SSW) 2,631 7.2 -8.6°
